Time,TemperatureF,DewpointF,PressureIn,WindDirection,WindDirectionDegrees,WindSpeedMPH,WindSpeedGustMPH,Humidity,HourlyPrecipIn,Conditions,Clouds,dailyrainin,SoftwareType,DateUTC
2013-03-19 00:00:00,14.0,-1.0,-100.00,West,263,11.0,25.0,49,-99.99,,,-99.99,,2013-03-19 06:00:00,
2013-03-19 00:42:00,14.0,-1.0,-100.00,West,263,11.0,25.0,49,-99.99,,,-99.99,,2013-03-19 06:42:00,
2013-03-19 00:52:00,14.0,-1.0,-100.00,West,263,11.0,25.0,49,-99.99,,,-99.99,,2013-03-19 06:52:00,
2013-03-19 01:00:00,14.0,0.0,-100.00,West,263,9.0,22.0,51,-99.99,,,-99.99,,2013-03-19 07:00:00,
2013-03-19 01:42:00,14.0,0.0,-100.00,West,263,9.0,22.0,51,-99.99,,,-99.99,,2013-03-19 07:42:00,
2013-03-19 01:52:00,14.0,0.0,-100.00,West,263,9.0,22.0,51,-99.99,,,-99.99,,2013-03-19 07:52:00,
2013-03-19 02:00:00,15.0,0.0,-100.00,WSW,252,9.0,32.0,49,-99.99,,,-99.99,,2013-03-19 08:00:00,
2013-03-19 02:43:00,15.0,0.0,-100.00,WSW,252,9.0,32.0,49,-99.99,,,-99.99,,2013-03-19 08:43:00,
2013-03-19 02:52:00,15.0,0.0,-100.00,WSW,252,9.0,32.0,49,-99.99,,,-99.99,,2013-03-19 08:52:00,
2013-03-19 03:00:00,16.0,0.0,-100.00,West,267,11.0,33.0,49,-99.99,,,-99.99,,2013-03-19 09:00:00,
2013-03-19 03:43:00,16.0,0.0,-100.00,West,267,11.0,33.0,49,-99.99,,,-99.99,,2013-03-19 09:43:00,
2013-03-19 03:53:00,16.0,0.0,-100.00,West,267,11.0,33.0,49,-99.99,,,-99.99,,2013-03-19 09:53:00,
2013-03-19 04:00:00,16.0,-1.0,-100.00,WNW,287,16.0,34.0,46,-99.99,,,-99.99,,2013-03-19 10:00:00,
2013-03-19 04:42:00,16.0,-1.0,-100.00,WNW,287,16.0,34.0,46,-99.99,,,-99.99,,2013-03-19 10:42:00,
2013-03-19 04:53:00,16.0,-1.0,-100.00,WNW,287,16.0,34.0,46,-99.99,,,-99.99,,2013-03-19 10:53:00,
2013-03-19 05:00:00,15.0,-1.0,-100.00,NW,306,21.0,35.0,49,-99.99,,,-99.99,,2013-03-19 11:00:00,
2013-03-19 05:43:00,15.0,-1.0,-100.00,NW,306,21.0,35.0,49,-99.99,,,-99.99,,2013-03-19 11:43:00,
2013-03-19 05:52:00,15.0,-1.0,-100.00,NW,306,21.0,35.0,49,-99.99,,,-99.99,,2013-03-19 11:52:00,
2013-03-19 06:00:00,15.0,1.0,-100.00,NW,317,21.0,39.0,53,-99.99,,,-99.99,,2013-03-19 12:00:00,
2013-03-19 06:43:00,15.0,1.0,-100.00,NW,317,21.0,39.0,53,-99.99,,,-99.99,,2013-03-19 12:43:00,
2013-03-19 06:52:00,15.0,1.0,-100.00,NW,317,21.0,39.0,53,-99.99,,,-99.99,,2013-03-19 12:52:00,
2013-03-19 07:00:00,14.0,1.0,-100.00,NW,318,20.0,36.0,55,-99.99,,,-99.99,,2013-03-19 13:00:00,
2013-03-19 07:42:00,14.0,1.0,-100.00,NW,318,20.0,36.0,55,-99.99,,,-99.99,,2013-03-19 13:42:00,
2013-03-19 07:52:00,14.0,1.0,-100.00,NW,318,20.0,36.0,55,-99.99,,,-99.99,,2013-03-19 13:52:00,
2013-03-19 08:00:00,12.0,4.0,-100.00,NW,325,21.0,39.0,68,-99.99,,,-99.99,,2013-03-19 14:00:00,
2013-03-19 08:42:00,12.0,4.0,-100.00,NW,325,21.0,39.0,68,-99.99,,,-99.99,,2013-03-19 14:42:00,
2013-03-19 08:52:00,12.0,4.0,-100.00,NW,325,21.0,39.0,68,-99.99,,,-99.99,,2013-03-19 14:52:00,
2013-03-19 09:00:00,13.0,2.0,-100.00,NW,324,20.0,36.0,59,-99.99,,,-99.99,,2013-03-19 15:00:00,
2013-03-19 09:44:00,13.0,2.0,-100.00,NW,324,20.0,36.0,59,-99.99,,,-99.99,,2013-03-19 15:44:00,
2013-03-19 09:53:00,13.0,2.0,-100.00,NW,324,20.0,36.0,59,-99.99,,,-99.99,,2013-03-19 15:53:00,
2013-03-19 10:00:00,14.0,1.0,-100.00,NW,323,19.0,31.0,57,-99.99,,,-99.99,,2013-03-19 16:00:00,
2013-03-19 10:44:00,14.0,1.0,-100.00,NW,323,19.0,31.0,57,-99.99,,,-99.99,,2013-03-19 16:44:00,
2013-03-19 10:54:00,14.0,1.0,-100.00,NW,323,19.0,31.0,57,-99.99,,,-99.99,,2013-03-19 16:54:00,
2013-03-19 11:00:00,14.0,2.0,-100.00,NNW,332,12.0,28.0,58,-99.99,,,-99.99,,2013-03-19 17:00:00,
2013-03-19 11:44:00,14.0,2.0,-100.00,NNW,332,12.0,28.0,58,-99.99,,,-99.99,,2013-03-19 17:44:00,
2013-03-19 11:53:00,14.0,2.0,-100.00,NNW,332,12.0,28.0,58,-99.99,,,-99.99,,2013-03-19 17:53:00,
2013-03-19 12:00:00,15.0,2.0,-100.00,NW,313,11.0,23.0,55,-99.99,,,-99.99,,2013-03-19 18:00:00,
2013-03-19 12:43:00,15.0,2.0,-100.00,NW,313,11.0,23.0,55,-99.99,,,-99.99,,2013-03-19 18:43:00,
2013-03-19 12:53:00,15.0,2.0,-100.00,NW,313,11.0,23.0,55,-99.99,,,-99.99,,2013-03-19 18:53:00,
2013-03-19 13:00:00,16.0,3.0,-100.00,NW,326,11.0,25.0,55,-99.99,,,-99.99,,2013-03-19 19:00:00,
2013-03-19 13:43:00,16.0,3.0,-100.00,NW,326,11.0,25.0,55,-99.99,,,-99.99,,2013-03-19 19:43:00,
2013-03-19 13:53:00,16.0,3.0,-100.00,NW,326,11.0,25.0,55,-99.99,,,-99.99,,2013-03-19 19:53:00,
2013-03-19 14:00:00,16.0,2.0,-100.00,NW,324,12.0,28.0,54,-99.99,,,-99.99,,2013-03-19 20:00:00,
2013-03-19 14:43:00,16.0,2.0,-100.00,NW,324,12.0,28.0,54,-99.99,,,-99.99,,2013-03-19 20:43:00,
2013-03-19 14:53:00,16.0,2.0,-100.00,NW,324,12.0,28.0,54,-99.99,,,-99.99,,2013-03-19 20:53:00,
2013-03-19 15:00:00,17.0,3.0,-100.00,NNW,330,9.0,18.0,55,-99.99,,,-99.99,,2013-03-19 21:00:00,
2013-03-19 15:43:00,17.0,3.0,-100.00,NNW,330,9.0,18.0,55,-99.99,,,-99.99,,2013-03-19 21:43:00,
2013-03-19 15:53:00,17.0,3.0,-100.00,NNW,330,9.0,18.0,55,-99.99,,,-99.99,,2013-03-19 21:53:00,
2013-03-19 16:00:00,17.0,4.0,-100.00,NNW,329,9.0,17.0,54,-99.99,,,-99.99,,2013-03-19 22:00:00,
2013-03-19 16:43:00,17.0,4.0,-100.00,NNW,329,9.0,17.0,54,-99.99,,,-99.99,,2013-03-19 22:43:00,
2013-03-19 16:53:00,17.0,4.0,-100.00,NNW,329,9.0,17.0,54,-99.99,,,-99.99,,2013-03-19 22:53:00,
2013-03-19 17:00:00,18.0,3.0,-100.00,NW,316,8.0,18.0,51,-99.99,,,-99.99,,2013-03-19 23:00:00,
2013-03-19 17:43:00,18.0,3.0,-100.00,NW,316,8.0,18.0,51,-99.99,,,-99.99,,2013-03-19 23:43:00,
2013-03-19 17:52:00,18.0,3.0,-100.00,NW,316,8.0,18.0,51,-99.99,,,-99.99,,2013-03-19 23:52:00,
2013-03-19 18:00:00,17.0,1.0,-100.00,NW,325,12.0,24.0,48,-99.99,,,-99.99,,2013-03-20 00:00:00,
2013-03-19 18:42:00,17.0,1.0,-100.00,NW,325,12.0,24.0,48,-99.99,,,-99.99,,2013-03-20 00:42:00,
2013-03-19 18:52:00,17.0,1.0,-100.00,NW,325,12.0,24.0,48,-99.99,,,-99.99,,2013-03-20 00:52:00,
2013-03-19 19:00:00,16.0,-1.0,-100.00,NW,325,12.0,19.0,46,-99.99,,,-99.99,,2013-03-20 01:00:00,
2013-03-19 19:43:00,16.0,-1.0,-100.00,NW,325,12.0,19.0,46,-99.99,,,-99.99,,2013-03-20 01:43:00,
2013-03-19 19:52:00,16.0,-1.0,-100.00,NW,325,12.0,19.0,46,-99.99,,,-99.99,,2013-03-20 01:52:00,
2013-03-19 20:00:00,15.0,-1.0,-100.00,NW,325,8.0,15.0,49,-99.99,,,-99.99,,2013-03-20 02:00:00,
2013-03-19 20:43:00,15.0,-1.0,-100.00,NW,325,8.0,15.0,49,-99.99,,,-99.99,,2013-03-20 02:43:00,
2013-03-19 20:53:00,15.0,-1.0,-100.00,NW,325,8.0,15.0,49,-99.99,,,-99.99,,2013-03-20 02:53:00,
2013-03-19 21:00:00,14.0,-1.0,-100.00,NW,313,6.0,12.0,50,-99.99,,,-99.99,,2013-03-20 03:00:00,
2013-03-19 21:43:00,14.0,-1.0,-100.00,NW,313,6.0,12.0,50,-99.99,,,-99.99,,2013-03-20 03:43:00,
2013-03-19 21:53:00,14.0,-1.0,-100.00,NW,313,6.0,12.0,50,-99.99,,,-99.99,,2013-03-20 03:53:00,
2013-03-19 22:00:00,13.0,-2.0,-100.00,NNE,26,1.0,6.0,50,-99.99,,,-99.99,,2013-03-20 04:00:00,
2013-03-19 22:43:00,13.0,-2.0,-100.00,NNE,26,1.0,6.0,50,-99.99,,,-99.99,,2013-03-20 04:43:00,
2013-03-19 22:52:00,13.0,-2.0,-100.00,NNE,26,1.0,6.0,50,-99.99,,,-99.99,,2013-03-20 04:52:00,
2013-03-19 23:00:00,14.0,-3.0,-100.00,SSW,200,2.0,7.0,46,-99.99,,,-99.99,,2013-03-20 05:00:00,
2013-03-19 23:43:00,14.0,-3.0,-100.00,SSW,200,2.0,7.0,46,-99.99,,,-99.99,,2013-03-20 05:43:00,
2013-03-19 23:53:00,14.0,-3.0,-100.00,SSW,200,2.0,7.0,46,-99.99,,,-99.99,,2013-03-20 05:53:00,